Tracking 22836 objects as of 16-Apr-2021
HD Live streaming from Space Station
objects crossing your sky now

STARLINK-1320

Track STARLINK-1320 now!
10-day predictions
STARLINK-1320 is classified as:


NORAD ID: 45572
Int'l Code: 2020-025AT
Perigee: 553.4 km
Apogee: 555.3 km
Inclination: 53.1 °
Period: 95.6 minutes
Semi major axis: 6925 km
RCS: Unknown
Launch date: April 22, 2020
Source: United States (US)
Launch site: AIR FORCE EASTERN TEST RANGE (AFETR)
aabbcc
Your satellite tracking list
Your tracking list is empty




NASA's NSSDC Master Catalog

Two Line Element Set (TLE):
1 45572U 20025AT  21105.71864331  .00000838  00000-0  75156-4 0  9991
2 45572  53.0611 187.6056 0001362 126.4469 233.6646 15.06396157 55876
Source of the keplerian elements: AFSPC